Details From EGAA - Belfast Aldergrove
To EGPH - Edinburgh
Flight Number -
Tags Generated
Created
Modified
Stats Distance 125 nm / 232 km
Max Altitude 0 ft / 0 m
Waypoints 2
Social Downloads 0
Likes 0
Share VATSIM

Download

Looking for another format? Having issues loading an existing format? Contact us
Advertisement - Login to hide

Notes

Generated

Route

EGAA EGPH

ID Type Via Altitude Latitude Longitude Leg Dist Tot Dist Heading (true) Name
O EGAA APT - 0 ft / 0 m 54.65792˚ -6.22862˚ - 0 nm - -
O EGPH APT - 0 ft / 0 m 55.94677˚ -3.35601˚ 125 nm 125 nm 51° / 53° Edinburgh

Altitude Profile

Advertisement - Login to hide

EGAA

Details ICAO EGAA (BFS)
Name Belfast Aldergrove
Region United Kingdom
Timezone Europe/London (UTC+1.0)
Stats Elevation 268 ft / 82 m (AMSL)
Location 54.653878° -6.220006°
Runways 2
Magnetic Variation 3.165° W

METAR

EGAA 241150Z 11006KT 080V160 CAVOK 20/11 Q1023

Decode

TAF

TAF TAF EGAA 241105Z 2412/2512 10007KT 9999 FEW040 BECMG 2419/2422 35011KT PROB40 TEMPO 2502/2508 7000 BKN005

Decode

Departure Runways

ID Width Length Bearing (true) Bearing (mag) Surface Threshold Offset Overrun Length
07 148 ft / 45 m 9,095 ft / 2,772 m 65.01° 68.18° Asphalt 0 ft / 0 m 0 ft / 0 m
17 148 ft / 45 m 5,896 ft / 1,797 m 161.98° 165.15° Asphalt 525 ft / 160 m 0 ft / 0 m
25 148 ft / 45 m 9,095 ft / 2,772 m 245.05° 248.22° Asphalt 0 ft / 0 m 0 ft / 0 m
35 148 ft / 45 m 5,896 ft / 1,797 m 341.99° 345.16° Asphalt 502 ft / 153 m 0 ft / 0 m

EGPH

Details ICAO EGPH (EDI)
Name Edinburgh
Region United Kingdom
Timezone Europe/London (UTC+1.0)
Stats Elevation 135 ft / 41 m (AMSL)
Location 55.948685° -3.359718°
Runways 2
Magnetic Variation 2.224° W

METAR

EGPH 241150Z 05010KT 9999 SCT009 11/08 Q1026

Decode

TAF

TAF EGPH 241102Z 2412/2512 06008KT 9999 SCT012 TEMPO 2412/2413 8000 BKN008 PROB40 TEMPO 2413/2418 8000 BKN008 BECMG 2418/2421 BKN005 TEMPO 2418/2509 6000 PROB40 2421/2506 2000 BR BKN001 BECMG 2508/2511 FEW005

Decode

Destination Runways

ID Width Length Bearing (true) Bearing (mag) Surface Threshold Offset Overrun Length
06 144 ft / 44 m 8,366 ft / 2,550 m 58.80° 61.02° Asphalt 705 ft / 215 m 200 ft / 61 m
12 151 ft / 46 m 5,878 ft / 1,792 m 118.67° 120.89° Asphalt 0 ft / 0 m 0 ft / 0 m
24 144 ft / 44 m 8,366 ft / 2,550 m 238.83° 241.05° Asphalt 679 ft / 207 m 207 ft / 63 m
30 151 ft / 46 m 5,878 ft / 1,792 m 298.69° 300.91° Asphalt 194 ft / 59 m 253 ft / 77 m

Approach Navaids

Runway Type Ident Frequency Range Bearing (true) Bearing (mag) Slope Elevation
06 Localiser IVG 108.90 MHz 18 nm / 33 km 58.83° 61.06° - 110 ft / 34 m (AMSL)
06 Glidescope IVG 108.90 MHz 10 nm / 19 km 58.81° 61.04° 3.00° 135 ft / 41 m (AMSL)
06 DME IVG 108.90 MHz 18 nm / 33 km - - - 123 ft / 37 m (AMSL)
24 Localiser ITH 108.90 MHz 18 nm / 33 km 238.79° 241.01° - 110 ft / 34 m (AMSL)
24 Glidescope ITH 108.90 MHz 10 nm / 19 km 238.81° 241.04° 3.00° 135 ft / 41 m (AMSL)
24 DME ITH 108.90 MHz 18 nm / 33 km - - - 123 ft / 37 m (AMSL)

Popular Alternatives